Weather History for Florala, AL

Change the Weather History Date:

Sunday, September 8, 2013

  Actual Average (KCEW) Record (KCEW)
Temperature  
Mean Temperature 80 °F -  
Max Temperature 91 °F 91 °F 97 °F (1990)
Min Temperature 69 °F 70 °F 55 °F (2011)
Cooling Degree Days 15    
Growing Degree Days 30 (Base 50)    
Moisture  
Dew Point 69 °F    
Average Humidity 74    
Maximum Humidity 93    
Minimum Humidity 43    
Precipitation  
Precipitation 0.00 in - - ()
Sea Level Pressure  
Sea Level Pressure 29.99 in    
Wind  
Wind Speed 0 mph (NNE)    
Max Wind Speed 6 mph    
Max Gust Speed -    
Visibility 9 miles    
Events      
Averages and records for this station are not official NWS values.
T = Trace of Precipitation, MM = Missing Value Source: NWS Daily Summary

Daily Weather History Graph

Daily Weather History Graph

Search for Another Location

Airport:

Trip Planner

Search our weather history database for the weather conditions in past years. The results will help you decide how hot, cold, wet, or windy it might be!

Date:

Astronomy

Sep. 08, 2013 Rise Set
Actual Time 6:25 AM CDT 6:59 PM CDT
Civil Twilight 6:01 AM CDT 7:23 PM CDT
Nautical Twilight 5:32 AM CDT 7:52 PM CDT
Astronomical Twilight 5:03 AM CDT 8:21 PM CDT
Moon 9:26 AM CDT (9/8) 8:52 PM CDT (9/8)
Length of Visible Light 13h 22m
Length of Day
12h 33m
Waxing Crescent, 11% of the Moon is Illuminated
Sep 8
Waxing Crescent
Sep 12
First Quarter
Sep 19
Full
Sep 26
Last Quarter
Oct 4
New

Hourly Weather History & Observations

Time (CDT) Temp. Heat Index Dew Point Humidity Pressure Visibility Wind Dir Wind Speed Gust Speed Precip Events Conditions
12:58 AM 72.0 °F - 70.0 °F 93% 30.01 in 8.0 mi Calm Calm - N/A   Clear
1:58 AM 71.1 °F - 69.1 °F 93% 29.99 in 7.0 mi Calm Calm - N/A   Clear
2:58 AM 69.1 °F - 66.9 °F 93% 29.99 in 7.0 mi Calm Calm - N/A   Clear
3:58 AM 70.0 °F - 68.0 °F 93% 29.99 in 8.0 mi Calm Calm - N/A   Clear
4:58 AM 69.1 °F - 66.9 °F 93% 29.99 in 7.0 mi Calm Calm - N/A   Clear
5:58 AM 69.1 °F - 66.9 °F 93% 30.00 in 6.0 mi Calm Calm - N/A   Clear
6:58 AM 70.0 °F - 68.0 °F 93% 30.01 in 5.0 mi Calm Calm - N/A   Clear
7:58 AM 77.0 °F - 71.1 °F 82% 30.02 in 9.0 mi Calm Calm - N/A   Clear
8:58 AM 81.0 °F 85.2 °F 72.0 °F 74% 30.02 in 10.0 mi Calm Calm - N/A   Clear
9:58 AM 84.0 °F 89.6 °F 72.0 °F 67% 30.03 in 10.0 mi Calm Calm - N/A   Clear
10:58 AM 84.9 °F 89.4 °F 70.0 °F 61% 30.02 in 10.0 mi Calm Calm - N/A   Partly Cloudy
11:58 AM 89.1 °F 94.1 °F 70.0 °F 53% 30.02 in 10.0 mi Calm Calm - N/A   Clear
12:58 PM 88.0 °F 91.4 °F 68.0 °F 51% 30.01 in 10.0 mi NNW 3.5 mph - N/A   Mostly Cloudy
1:58 PM 90.0 °F 91.7 °F 64.9 °F 43% 29.98 in 10.0 mi NE 5.8 mph - N/A   Clear
2:58 PM 91.0 °F 94.3 °F 66.9 °F 45% 29.96 in 10.0 mi Calm Calm - N/A   Mostly Cloudy
3:58 PM 90.0 °F 92.8 °F 66.9 °F 46% 29.97 in 10.0 mi NNE 4.6 mph - N/A   Mostly Cloudy
4:58 PM 90.0 °F 92.4 °F 66.0 °F 45% 29.96 in 10.0 mi Calm Calm - N/A   Clear
5:58 PM 86.0 °F 90.7 °F 70.0 °F 59% 29.95 in 10.0 mi Calm Calm - N/A   Clear
6:58 PM 81.0 °F 85.2 °F 72.0 °F 74% 29.96 in 10.0 mi Calm Calm - N/A   Clear
7:58 PM 79.0 °F - 72.0 °F 79% 29.97 in 10.0 mi Calm Calm - N/A   Clear
8:58 PM 77.0 °F - 71.1 °F 82% 29.99 in 10.0 mi Calm Calm - N/A   Clear
9:58 PM 75.9 °F - 71.1 °F 85% 30.00 in 10.0 mi Calm Calm - N/A   Clear
10:58 PM 73.9 °F - 71.1 °F 91% 30.01 in 9.0 mi Calm Calm - N/A   Clear
11:58 PM 73.9 °F - 70.0 °F 87% 30.00 in 9.0 mi Calm Calm - N/A   Clear